map of IWD home
IWD - Airport
Location
City:  Ironwood, Michigan, United States
Name:Gogebic-Iron County Airport
ICAO:KIWD
IATA:IWD
FAA LID:IWD

Details
Type:Airport (Part 139 Class I)
Use:Public/Civil
Latitude:4631'39"N (46.527472)
Longitude:9007'53"W (-90.131388)
Datum:WGS 1984
Elevation:1230 ft (375 m)
Variation:2.61W (WMM2015v2 magnetic declination)
-0.02 annual change
Runways:1
Longest:6502 × 120 ft (1982 × 36.5 m), paved

Time
Time Zone:UTC-6 (DST-5)
Local Time:

Weather
METAR:KIWD 041415Z AUTO 03004KT 1 3/4SM -SN BR OVC011 M06/M07 A2966 RMK AO2 FZRANO PNO $
TAF:KIWD 041120Z 0412/0512 07009KT 2SM -PLSN BR OVC007
FM041500 03011G21KT 3SM -PLSN BLSN BR OVC009
FM042000 36012G22KT 4SM -SN BLSN OVC010
FM050000 34008KT 2SM -SN OVC009
FM050700 36004KT 4SM -SN OVC011

Related Locations
Nearby:
Farthest:YAUG: 10872 mi / 17497 km
Augusta [Augusta Airport], WA, AU

Find:

   beyond  
but within

Other Information
Maps:
NOTAMs:
Links:
Sources:

  
  • flag of United States
  • flag of Michigan
  

Sectional Chart

Flight Planning
at skyvector.com

Satellite Image

Google Maps Satellite view

 

Copyright © 2004-2019 Karl L. Swartz. All rights reserved.
The Great Circle Mapper name and logo are trademarks of the Great Circle Mapper.
All other trademarks mentioned herein belong to their respective owners.
Please see credits for attibutions and further copyright information.

  Follow gcmap on Facebook Follow gcmap on Twitter GCmap on LinkedIn

hCard Microformat

Geo Microformat